Вернуться в каталог

USA 425

АктивенВоенныеVLEO
NORAD 61648·PAYLOAD·🇺🇸 United States

Запущен Oct 24, 2024 с Vandenberg Space Force Base

Loading…

Ближайшие Пролёты (ближайшие 24 часа)

TLE

УстаревшееSource: Mike McCants

Эпоха: Aug 10, 2026, 20:54 UTC

1 61648U 24192E   26222.87117986 0.00000000  00000-0  00000-0 0    07
2 61648  70.0170 129.6911 0003000 293.1917  66.8083 14.96713490    01

Отслеживайте USA 425 в реальном времени с AllMySat

Download on the App Store